LFGJLFLP

Guest
Details From LFGJ - Dole Tavaux
To LFLP - Annecy Haute-Sovoie Mont Blanc Meythet
Flight Number -
Tags generated
Created
Modified
Stats Distance 72 nm / 134 km
Max Altitude 5,100 ft / 1,554 m
Waypoints 3
Social Downloads 0
Likes 0
Share VATSIM

Download

Looking for another format? Having issues loading an existing format? Contact us
Advertisement - Login to hide

Notes

Basic altitude profile: - Ascent Rate: 1700ft/min - Ascent Speed: 170kts - Cruise Altitude: 10000ft - Cruise Speed: 190kts - Descent Rate: 1500ft/min - Descent Speed: 190kts Options: - Use NATs: yes - Use PACOTS: yes - Use low airways: yes - Use high airways: yes

Route

LFGJ MILPA LFLP

ID Type Via Altitude Latitude Longitude Leg Dist Tot Dist Heading (true) Name
O LFGJ APT - 0 ft / 0 m 47.03893˚ 5.42727˚ - 0 nm - Dole Tavaux
MILPA FIX - 5,100 ft / 1,554 m 46.30250˚ 5.87972˚ 47 nm 47 nm 157° / 157° -
O LFLP APT - 0 ft / 0 m 45.92882˚ 6.09960˚ 24 nm 72 nm 158° / 158° Annecy Haute-Sovoie Mont Blanc Meythet

Altitude Profile

Advertisement - Login to hide

LFGJ

Details ICAO LFGJ (DLE)
Name Dole Tavaux
Region France
Timezone Europe/Paris (UTC+2.0)
Stats Elevation 645 ft / 197 m (AMSL)
Location 47.038933° 5.427265°
Runways 1
Magnetic Variation 1.600° E

METAR

LFGJ 250530Z AUTO 04003KT CAVOK 15/14 Q1017 NOSIG

Decode

TAF

Not found

Departure Runways

ID Width Length Bearing (true) Bearing (mag) Surface Threshold Offset Overrun Length
05 148 ft / 45 m 7,306 ft / 2,227 m 54.25° 52.65° Asphalt 0 ft / 0 m 0 ft / 0 m
23 148 ft / 45 m 7,306 ft / 2,227 m 234.27° 232.67° Asphalt 0 ft / 0 m 1,214 ft / 370 m

LFLP

Details ICAO LFLP (NCY)
Name Annecy Haute-Sovoie Mont Blanc Meythet
Region France
Timezone Europe/Paris (UTC+2.0)
Stats Elevation 1,520 ft / 463 m (AMSL)
Location 45.928820° 6.099601°
Runways 2
Magnetic Variation 1.793° E

METAR

LFLP 250530Z AUTO 05004KT CAVOK 15/12 Q1018 NOSIG

Decode

TAF

TAF LFLP 250200Z 2503/2603 VRB03KT CAVOK

Decode

Destination Runways

ID Width Length Bearing (true) Bearing (mag) Surface Threshold Offset Overrun Length
04 98 ft / 30 m 5,290 ft / 1,612 m 38.51° 36.72° Asphalt 820 ft / 250 m 0 ft / 0 m
22 98 ft / 30 m 5,290 ft / 1,612 m 218.52° 216.73° Asphalt 755 ft / 230 m 0 ft / 0 m
22C 230 ft / 70 m 2,783 ft / 848 m 218.40° 216.61° Grass 0 ft / 0 m 0 ft / 0 m
4C 230 ft / 70 m 2,783 ft / 848 m 38.40° 36.61° Grass 0 ft / 0 m 0 ft / 0 m

Approach Navaids

Runway Type Ident Frequency Range Bearing (true) Bearing (mag) Slope Elevation
04 Localiser ANM 108.90 MHz 27 nm / 50 km 38.56° 36.77° - 1,520 ft / 463 m (AMSL)
04 Glidescope ANM 108.90 MHz 10 nm / 19 km 38.51° 36.72° 3.68° 1,529 ft / 466 m (AMSL)
04 DME ANM 108.90 MHz 27 nm / 50 km - - - 1,520 ft / 463 m (AMSL)